BAW23G EGLL-KJFK

Flight info

Callsign BAW23G
Flight time 6h 56m
Altitude 36000
Route CPT L9 BIBPE DCT BUCGO DCT FELCA DCT NICXI DCT BAKUR DCT NEBIN/M085F380 NATD IBERG/N0483F380 N364A TUSKY DCT PLYMM PARCH4
Aircraft A35K/H-SDE2E3GHIJ3J4J5LM1ORWXY/LB1D1

Departure

Time 2026-05-07 12:01
Airport London Heathrow Airport (EGLL)

Arrival

Time 2026-05-07 18:57
Airport John F. Kennedy International Airport (KJFK)
Time Latitude Longitude Altitude Speed Heading
2026-05-07 11:39 51.47055 -0.47494 92 ft 0 kts 270°
2026-05-07 11:49 51.47055 -0.47492 92 ft 2 kts 270°
2026-05-07 11:49 51.47055 -0.47451 93 ft 4 kts 270°
2026-05-07 11:49 51.47055 -0.47408 92 ft 4 kts 270°
2026-05-07 11:50 51.47055 -0.47369 92 ft 4 kts 263°
2026-05-07 11:50 51.47063 -0.47336 91 ft 4 kts 202°
2026-05-07 11:50 51.47086 -0.47338 90 ft 4 kts 159°
2026-05-07 11:50 51.47111 -0.47352 91 ft 4 kts 174°
2026-05-07 11:51 51.47116 -0.47353 90 ft 0 kts 180°
2026-05-07 11:54 51.47115 -0.47353 92 ft 1 kts 180°
2026-05-07 11:55 51.47102 -0.47352 95 ft 3 kts 180°
2026-05-07 11:55 51.47073 -0.47352 92 ft 6 kts 179°
2026-05-07 11:55 51.47027 -0.47351 92 ft 8 kts 179°
2026-05-07 11:55 51.46963 -0.47351 92 ft 11 kts 179°
2026-05-07 11:56 51.46882 -0.47350 94 ft 13 kts 180°
2026-05-07 11:56 51.46786 -0.47354 93 ft 14 kts 192°
2026-05-07 11:56 51.46745 -0.47476 95 ft 13 kts 263°
2026-05-07 11:56 51.46744 -0.47631 92 ft 15 kts 270°
2026-05-07 11:57 51.46744 -0.47804 92 ft 16 kts 270°
2026-05-07 11:57 51.46744 -0.48035 92 ft 27 kts 270°
2026-05-07 11:57 51.46743 -0.48344 93 ft 28 kts 270°
2026-05-07 11:57 51.46743 -0.48598 95 ft 0 kts 269°
2026-05-07 11:58 51.46743 -0.48618 92 ft 6 kts 269°
2026-05-07 11:58 51.46728 -0.48712 97 ft 10 kts 233°
2026-05-07 11:58 51.46665 -0.48747 94 ft 11 kts 186°
2026-05-07 11:58 51.46629 -0.48757 95 ft 0 kts 192°
2026-05-07 11:59 51.46624 -0.48759 95 ft 2 kts 194°
2026-05-07 11:59 51.46599 -0.48771 94 ft 6 kts 196°
2026-05-07 11:59 51.46542 -0.48782 95 ft 10 kts 177°
2026-05-07 12:00 51.46486 -0.48714 97 ft 12 kts 114°
2026-05-07 12:00 51.46479 -0.48446 92 ft 37 kts 90°
2026-05-07 12:00 51.46480 -0.47826 92 ft 86 kts 90°
2026-05-07 12:00 51.46484 -0.46529 99 ft 145 kts 89°
2026-05-07 12:01 51.46491 -0.44677 339 ft 175 kts 89°
2026-05-07 12:01 51.46508 -0.42719 1035 ft 174 kts 90°
2026-05-07 12:01 51.46342 -0.40744 1564 ft 189 kts 107°
2026-05-07 12:01 51.45668 -0.38790 1850 ft 215 kts 133°
2026-05-07 12:02 51.44382 -0.37358 2170 ft 239 kts 160°
2026-05-07 12:02 51.42710 -0.37063 2762 ft 249 kts 189°
2026-05-07 12:02 51.41110 -0.38107 3508 ft 251 kts 218°
2026-05-07 12:02 51.39781 -0.39945 4300 ft 253 kts 221°
2026-05-07 12:03 51.38433 -0.41779 5109 ft 256 kts 221°
2026-05-07 12:03 51.37083 -0.43594 5892 ft 258 kts 221°
2026-05-07 12:03 51.35977 -0.45840 6669 ft 259 kts 246°
2026-05-07 12:03 51.35630 -0.48663 7462 ft 262 kts 272°
2026-05-07 12:04 51.35863 -0.51583 8247 ft 267 kts 279°
2026-05-07 12:04 51.36226 -0.54566 8787 ft 278 kts 281°
2026-05-07 12:04 51.36616 -0.57626 9047 ft 282 kts 281°
2026-05-07 12:04 51.37014 -0.60713 9300 ft 284 kts 281°
2026-05-07 12:05 51.37416 -0.63825 9523 ft 286 kts 281°
2026-05-07 12:05 51.37817 -0.66947 9769 ft 288 kts 281°
2026-05-07 12:05 51.38220 -0.70094 10007 ft 289 kts 281°
2026-05-07 12:05 51.38729 -0.73300 10221 ft 309 kts 289°
2026-05-07 12:06 51.39600 -0.76601 10428 ft 335 kts 294°
2026-05-07 12:06 51.40650 -0.80013 10619 ft 354 kts 297°
2026-05-07 12:06 51.41835 -0.83550 10981 ft 365 kts 298°
2026-05-07 12:06 51.43071 -0.87102 11884 ft 364 kts 298°
2026-05-07 12:07 51.44314 -0.90649 12757 ft 366 kts 298°
2026-05-07 12:07 51.45561 -0.94234 13513 ft 370 kts 298°
2026-05-07 12:07 51.46809 -0.97858 14193 ft 374 kts 297°
2026-05-07 12:07 51.48054 -1.01508 14850 ft 377 kts 297°
2026-05-07 12:08 51.49311 -1.05217 15562 ft 380 kts 297°
2026-05-07 12:08 51.50576 -1.08966 16252 ft 382 kts 297°
2026-05-07 12:08 51.51844 -1.12734 16952 ft 385 kts 297°
2026-05-07 12:08 51.53121 -1.16533 17647 ft 388 kts 296°
2026-05-07 12:09 51.54412 -1.20380 18377 ft 392 kts 296°
2026-05-07 12:09 51.55712 -1.24258 19000 ft 395 kts 296°
2026-05-07 12:09 51.57017 -1.28156 19631 ft 398 kts 296°
2026-05-07 12:09 51.58339 -1.32111 20231 ft 402 kts 296°
2026-05-07 12:10 51.59649 -1.36036 20833 ft 406 kts 296°
2026-05-07 12:10 51.60993 -1.40064 21483 ft 409 kts 296°
2026-05-07 12:10 51.62339 -1.44109 22097 ft 412 kts 296°
2026-05-07 12:10 51.63698 -1.48197 22726 ft 415 kts 296°
2026-05-07 12:11 51.65067 -1.52325 23350 ft 419 kts 296°
2026-05-07 12:11 51.66447 -1.56491 23891 ft 422 kts 296°
2026-05-07 12:11 51.67833 -1.60684 24377 ft 426 kts 296°
2026-05-07 12:11 51.69202 -1.64962 24849 ft 430 kts 293°
2026-05-07 12:12 51.70220 -1.69433 25322 ft 431 kts 283°
2026-05-07 12:12 51.70832 -1.74186 25801 ft 434 kts 278°
2026-05-07 12:12 51.71282 -1.79013 26274 ft 437 kts 276°
2026-05-07 12:12 51.71651 -1.83913 26745 ft 441 kts 275°
2026-05-07 12:13 51.71986 -1.88854 27215 ft 444 kts 275°
2026-05-07 12:13 51.72312 -1.93829 27684 ft 448 kts 275°
2026-05-07 12:13 51.72642 -1.98847 28173 ft 451 kts 275°
2026-05-07 12:13 51.72980 -2.03898 28622 ft 454 kts 275°
2026-05-07 12:14 51.73321 -2.08913 29043 ft 458 kts 275°
2026-05-07 12:14 51.73673 -2.14037 29471 ft 461 kts 275°
2026-05-07 12:14 51.74031 -2.19213 29903 ft 465 kts 275°
2026-05-07 12:14 51.74390 -2.24427 30277 ft 468 kts 275°
2026-05-07 12:15 51.74749 -2.29669 30617 ft 471 kts 275°
2026-05-07 12:15 51.75108 -2.34946 30967 ft 473 kts 275°
2026-05-07 12:15 51.75466 -2.40239 31295 ft 476 kts 275°
2026-05-07 12:15 51.75818 -2.45492 31629 ft 478 kts 275°
2026-05-07 12:16 51.76173 -2.50832 31959 ft 479 kts 275°
2026-05-07 12:16 51.76526 -2.56202 32255 ft 482 kts 275°
2026-05-07 12:16 51.76879 -2.61599 32634 ft 481 kts 274°
2026-05-07 12:16 51.77229 -2.66968 33078 ft 480 kts 275°
2026-05-07 12:17 51.77576 -2.72324 33499 ft 479 kts 274°
2026-05-07 12:17 51.77922 -2.77700 33779 ft 482 kts 275°
2026-05-07 12:17 51.78266 -2.83120 33854 ft 488 kts 275°
2026-05-07 12:17 51.78609 -2.88567 34217 ft 487 kts 274°
2026-05-07 12:18 51.78945 -2.93936 34672 ft 483 kts 274°
2026-05-07 12:18 51.79281 -2.99329 35010 ft 481 kts 274°
2026-05-07 12:18 51.79615 -3.04697 35275 ft 481 kts 274°
2026-05-07 12:18 51.79946 -3.10095 35534 ft 481 kts 274°
2026-05-07 12:19 51.80272 -3.15470 35801 ft 480 kts 274°
2026-05-07 12:19 51.80593 -3.20789 36020 ft 481 kts 273°
2026-05-07 12:19 51.80916 -3.26204 36057 ft 486 kts 273°
2026-05-07 12:20 51.81560 -3.37121 36047 ft 487 kts 274°
2026-05-07 12:20 51.82191 -3.47973 36032 ft 486 kts 274°
2026-05-07 12:21 51.83190 -3.58818 36036 ft 488 kts 279°
2026-05-07 12:21 51.84542 -3.69585 36038 ft 488 kts 280°
2026-05-07 12:22 51.85946 -3.80340 36031 ft 488 kts 279°
2026-05-07 12:22 51.87326 -3.91020 36038 ft 488 kts 280°
2026-05-07 12:23 51.88693 -4.01787 36026 ft 487 kts 280°
2026-05-07 12:23 51.90045 -4.12538 36032 ft 487 kts 279°
2026-05-07 12:24 51.91386 -4.23286 36031 ft 487 kts 280°
2026-05-07 12:24 51.92716 -4.34030 36027 ft 486 kts 279°
2026-05-07 12:25 51.94038 -4.44790 36026 ft 486 kts 279°
2026-05-07 12:25 51.95342 -4.55482 36026 ft 486 kts 279°
2026-05-07 12:26 51.96645 -4.66262 36024 ft 488 kts 279°
2026-05-07 12:26 51.97942 -4.77087 36023 ft 489 kts 279°
2026-05-07 12:27 51.99231 -4.87926 36023 ft 489 kts 279°
2026-05-07 12:27 52.00514 -4.98747 36018 ft 488 kts 280°
2026-05-07 12:28 52.02752 -5.09083 36022 ft 491 kts 297°
2026-05-07 12:28 52.06109 -5.18754 36020 ft 492 kts 299°
2026-05-07 12:29 52.09641 -5.28281 36021 ft 492 kts 300°
2026-05-07 12:29 52.13184 -5.37830 36018 ft 492 kts 299°
2026-05-07 12:30 52.16694 -5.47401 36019 ft 492 kts 299°
2026-05-07 12:30 52.19991 -5.56468 36015 ft 494 kts 299°
2026-05-07 12:31 52.23386 -5.66146 36013 ft 493 kts 294°
2026-05-07 12:31 52.25722 -5.76631 36009 ft 491 kts 285°
2026-05-07 12:32 52.27342 -5.85511 36010 ft 491 kts 284°
2026-05-07 12:32 52.29517 -5.98014 36003 ft 491 kts 284°
2026-05-07 12:33 52.31999 -6.12297 35996 ft 490 kts 284°
2026-05-07 12:33 52.33864 -6.23022 35996 ft 490 kts 284°
2026-05-07 12:34 52.35720 -6.33735 35995 ft 490 kts 284°
2026-05-07 12:34 52.37575 -6.44505 35990 ft 491 kts 284°
2026-05-07 12:35 52.39415 -6.55263 35985 ft 491 kts 283°
2026-05-07 12:35 52.41247 -6.66040 35982 ft 490 kts 283°
2026-05-07 12:36 52.43064 -6.76799 35984 ft 490 kts 283°
2026-05-07 12:36 52.44874 -6.87578 35983 ft 490 kts 283°
2026-05-07 12:37 52.46663 -6.98303 35985 ft 490 kts 283°
2026-05-07 12:37 52.48451 -7.09083 35974 ft 489 kts 283°
2026-05-07 12:38 52.50229 -7.19880 35967 ft 489 kts 283°
2026-05-07 12:38 52.51996 -7.30676 35963 ft 489 kts 283°
2026-05-07 12:39 52.53751 -7.41462 35961 ft 489 kts 282°
2026-05-07 12:39 52.55489 -7.52216 35957 ft 489 kts 282°
2026-05-07 12:40 52.57223 -7.63016 35955 ft 488 kts 282°
2026-05-07 12:40 52.58949 -7.73830 35955 ft 488 kts 282°
2026-05-07 12:41 52.60663 -7.84645 35950 ft 488 kts 282°
2026-05-07 12:41 52.62357 -7.95403 35949 ft 488 kts 282°
2026-05-07 12:42 52.64049 -8.06219 35952 ft 488 kts 282°
2026-05-07 12:42 52.65729 -8.17027 35949 ft 486 kts 282°
2026-05-07 12:43 52.67390 -8.27787 35949 ft 486 kts 282°
2026-05-07 12:43 52.69049 -8.38605 35949 ft 486 kts 282°
2026-05-07 12:44 52.70697 -8.49416 35965 ft 486 kts 281°
2026-05-07 12:44 52.72335 -8.60242 35961 ft 486 kts 281°
2026-05-07 12:45 52.73959 -8.71048 35950 ft 485 kts 281°
2026-05-07 12:45 52.75561 -8.81782 35949 ft 484 kts 281°
2026-05-07 12:46 52.77165 -8.92603 35947 ft 484 kts 281°
2026-05-07 12:46 52.78757 -9.03415 35947 ft 484 kts 281°
2026-05-07 12:47 52.80338 -9.14224 35947 ft 484 kts 281°
2026-05-07 12:47 52.81908 -9.25033 35946 ft 483 kts 281°
2026-05-07 12:48 52.83456 -9.35768 35948 ft 482 kts 281°
2026-05-07 12:48 52.85002 -9.46571 35949 ft 482 kts 281°
2026-05-07 12:49 52.86549 -9.57462 35948 ft 491 kts 281°
2026-05-07 12:49 52.88116 -9.68568 35939 ft 496 kts 281°
2026-05-07 12:50 52.89678 -9.79698 35954 ft 495 kts 281°
2026-05-07 12:50 52.91213 -9.90728 35936 ft 494 kts 281°
2026-05-07 12:51 52.92750 -10.01857 35942 ft 494 kts 281°
2026-05-07 12:51 52.94273 -10.12971 35957 ft 494 kts 280°
2026-05-07 12:52 52.95784 -10.24077 35939 ft 492 kts 280°
2026-05-07 12:52 52.97278 -10.35145 35978 ft 492 kts 280°
2026-05-07 12:53 52.98762 -10.46223 35975 ft 490 kts 280°
2026-05-07 12:53 53.00233 -10.57284 35977 ft 490 kts 280°
2026-05-07 12:54 53.00952 -10.62722 36197 ft 487 kts 280°
2026-05-07 12:54 53.01674 -10.68206 36465 ft 485 kts 280°
2026-05-07 12:54 53.02392 -10.73672 36731 ft 483 kts 280°
2026-05-07 12:54 53.03103 -10.79115 36995 ft 481 kts 280°
2026-05-07 12:55 53.03809 -10.84534 37265 ft 479 kts 279°
2026-05-07 12:55 53.04510 -10.89944 37542 ft 477 kts 279°
2026-05-07 12:55 53.05206 -10.95329 37809 ft 476 kts 279°
2026-05-07 12:55 53.05899 -11.00715 37933 ft 477 kts 279°
2026-05-07 12:56 53.07290 -11.11606 37933 ft 484 kts 279°
2026-05-07 12:56 53.08678 -11.22556 37935 ft 488 kts 279°
2026-05-07 12:57 53.10075 -11.33634 37927 ft 488 kts 279°
2026-05-07 12:57 53.11453 -11.44650 37925 ft 487 kts 279°
2026-05-07 12:58 53.12825 -11.55712 37936 ft 487 kts 279°
2026-05-07 12:58 53.14183 -11.66765 37934 ft 487 kts 279°
2026-05-07 12:59 53.15532 -11.77822 37944 ft 487 kts 279°
2026-05-07 12:59 53.16871 -11.88814 37931 ft 486 kts 279°
2026-05-07 13:00 53.18194 -11.99868 37938 ft 486 kts 278°
2026-05-07 13:00 53.18848 -12.05380 38094 ft 483 kts 278°
2026-05-07 13:00 53.19499 -12.10882 38150 ft 484 kts 278°
2026-05-07 13:01 53.20799 -12.21924 38154 ft 486 kts 278°
2026-05-07 13:01 53.22091 -12.32971 38155 ft 487 kts 278°
2026-05-07 13:02 53.23379 -12.44081 38158 ft 487 kts 278°
2026-05-07 13:02 53.24660 -12.55214 38157 ft 488 kts 278°
2026-05-07 13:03 53.25927 -12.66352 38159 ft 488 kts 278°
2026-05-07 13:03 53.27177 -12.77413 38161 ft 488 kts 278°
2026-05-07 13:04 53.28427 -12.88566 38155 ft 488 kts 278°
2026-05-07 13:04 53.29665 -12.99724 38201 ft 488 kts 278°
2026-05-07 13:05 53.30888 -13.10840 38207 ft 488 kts 278°
2026-05-07 13:05 53.32106 -13.22011 38208 ft 488 kts 278°
2026-05-07 13:06 53.33315 -13.33209 38206 ft 488 kts 278°
2026-05-07 13:06 53.34514 -13.44419 38207 ft 488 kts 278°
2026-05-07 13:07 53.35698 -13.55593 38311 ft 486 kts 278°
2026-05-07 13:07 53.36862 -13.66681 38318 ft 487 kts 278°
2026-05-07 13:08 53.38024 -13.77852 38323 ft 487 kts 278°
2026-05-07 13:08 53.39174 -13.89017 38323 ft 487 kts 278°
2026-05-07 13:09 53.40315 -14.00201 38326 ft 487 kts 278°
2026-05-07 13:09 53.41445 -14.11381 38394 ft 486 kts 278°
2026-05-07 13:10 53.42567 -14.22587 38380 ft 487 kts 277°
2026-05-07 13:10 53.43676 -14.33786 38380 ft 487 kts 277°
2026-05-07 13:11 53.44775 -14.44997 38385 ft 487 kts 277°
2026-05-07 13:11 53.45858 -14.56145 38385 ft 487 kts 277°
2026-05-07 13:12 53.46939 -14.67393 38385 ft 488 kts 277°
2026-05-07 13:12 53.48008 -14.78632 38384 ft 488 kts 277°
2026-05-07 13:13 53.49068 -14.89892 38384 ft 488 kts 277°
2026-05-07 13:13 53.49965 -15.01120 38384 ft 486 kts 271°
2026-05-07 13:14 53.50287 -15.12484 38387 ft 486 kts 270°
2026-05-07 13:14 53.50503 -15.23850 38414 ft 486 kts 270°
2026-05-07 13:15 53.50697 -15.35146 38416 ft 486 kts 270°
2026-05-07 13:15 53.50890 -15.46513 38440 ft 486 kts 270°
2026-05-07 13:16 53.51076 -15.57859 38445 ft 486 kts 270°
2026-05-07 13:16 53.51254 -15.69212 38450 ft 486 kts 270°
2026-05-07 13:17 53.51389 -15.78438 38452 ft 486 kts 270°
2026-05-07 13:17 53.51546 -15.89741 38452 ft 485 kts 270°
2026-05-07 13:18 53.51692 -16.01046 38454 ft 483 kts 270°
2026-05-07 13:18 53.51826 -16.12278 38457 ft 483 kts 270°
2026-05-07 13:19 53.51950 -16.23558 38457 ft 483 kts 270°
2026-05-07 13:19 53.52064 -16.34866 38460 ft 483 kts 270°
2026-05-07 13:20 53.52168 -16.46167 38462 ft 483 kts 270°
2026-05-07 13:20 53.52260 -16.57382 38465 ft 483 kts 270°
2026-05-07 13:21 53.52342 -16.68697 38465 ft 483 kts 269°
2026-05-07 13:21 53.52412 -16.79985 38471 ft 483 kts 270°
2026-05-07 13:22 53.52463 -16.89396 38474 ft 483 kts 270°
2026-05-07 13:22 53.52523 -17.02551 38475 ft 484 kts 269°
2026-05-07 13:23 53.52557 -17.12047 38491 ft 485 kts 269°
2026-05-07 13:23 53.52587 -17.23301 38494 ft 485 kts 269°
2026-05-07 13:24 53.52607 -17.34661 38494 ft 485 kts 270°
2026-05-07 13:24 53.52616 -17.46025 38496 ft 485 kts 269°
2026-05-07 13:25 53.52615 -17.57301 38499 ft 485 kts 269°
2026-05-07 13:25 53.52603 -17.68660 38499 ft 485 kts 269°
2026-05-07 13:26 53.52580 -17.80013 38504 ft 485 kts 269°
2026-05-07 13:26 53.52545 -17.91337 38496 ft 485 kts 269°
2026-05-07 13:27 53.52501 -18.02690 38496 ft 485 kts 269°
2026-05-07 13:27 53.52446 -18.14043 38499 ft 485 kts 269°
2026-05-07 13:28 53.52380 -18.25391 38499 ft 485 kts 269°
2026-05-07 13:28 53.52303 -18.36753 38499 ft 485 kts 269°
2026-05-07 13:29 53.52216 -18.48042 38501 ft 486 kts 269°
2026-05-07 13:29 53.52117 -18.59409 38507 ft 486 kts 269°
2026-05-07 13:30 53.52008 -18.70779 38506 ft 486 kts 269°
2026-05-07 13:30 53.51888 -18.82138 38531 ft 486 kts 269°
2026-05-07 13:31 53.51758 -18.93449 38531 ft 486 kts 269°
2026-05-07 13:31 53.51616 -19.04836 38524 ft 487 kts 269°
2026-05-07 13:32 53.51464 -19.16152 38529 ft 487 kts 269°
2026-05-07 13:32 53.51301 -19.27541 38528 ft 487 kts 269°
2026-05-07 13:33 53.51127 -19.38944 38536 ft 487 kts 269°
2026-05-07 13:33 53.50942 -19.50327 38524 ft 488 kts 269°
2026-05-07 13:34 53.50643 -19.67434 38522 ft 488 kts 269°
2026-05-07 13:35 53.50433 -19.78757 38525 ft 488 kts 269°
2026-05-07 13:35 53.50209 -19.90160 38530 ft 488 kts 268°
2026-05-07 13:36 53.49974 -20.01586 38531 ft 488 kts 268°
2026-05-07 13:36 53.49435 -20.12960 38524 ft 489 kts 264°
2026-05-07 13:37 53.48679 -20.24317 38526 ft 489 kts 264°
2026-05-07 13:37 53.47948 -20.35680 38525 ft 489 kts 265°
2026-05-07 13:38 53.47253 -20.47053 38528 ft 489 kts 265°
2026-05-07 13:38 53.46568 -20.58346 38514 ft 489 kts 265°
2026-05-07 13:39 53.45867 -20.69743 38533 ft 490 kts 265°
2026-05-07 13:39 53.45155 -20.81111 38533 ft 490 kts 265°
2026-05-07 13:40 53.44433 -20.92425 38540 ft 490 kts 265°
2026-05-07 13:40 53.43697 -21.03793 38539 ft 490 kts 265°
2026-05-07 13:41 53.42950 -21.15163 38529 ft 490 kts 265°
2026-05-07 13:41 53.42190 -21.26553 38528 ft 490 kts 265°
2026-05-07 13:42 53.41421 -21.37926 38530 ft 490 kts 265°
2026-05-07 13:42 53.40645 -21.49234 38532 ft 491 kts 264°
2026-05-07 13:43 53.39853 -21.60617 38530 ft 491 kts 264°
2026-05-07 13:43 53.39057 -21.71902 38533 ft 491 kts 264°
2026-05-07 13:44 53.38245 -21.83251 38536 ft 491 kts 264°
2026-05-07 13:44 53.37421 -21.94600 38536 ft 491 kts 264°
2026-05-07 13:45 53.36588 -22.05943 38536 ft 491 kts 264°
2026-05-07 13:45 53.35741 -22.17304 38528 ft 491 kts 264°
2026-05-07 13:46 53.34886 -22.28639 38525 ft 491 kts 264°
2026-05-07 13:46 53.34020 -22.39976 38532 ft 491 kts 264°
2026-05-07 13:47 53.33142 -22.51314 38533 ft 491 kts 264°
2026-05-07 13:47 53.32260 -22.62573 38536 ft 491 kts 264°
2026-05-07 13:48 53.31359 -22.73923 38513 ft 492 kts 264°
2026-05-07 13:48 53.30446 -22.85282 38515 ft 492 kts 264°
2026-05-07 13:49 53.29523 -22.96622 38528 ft 493 kts 264°
2026-05-07 13:49 53.28589 -23.07970 38527 ft 493 kts 264°
2026-05-07 13:50 53.27643 -23.19328 38518 ft 493 kts 264°
2026-05-07 13:50 53.26691 -23.30618 38520 ft 494 kts 264°
2026-05-07 13:51 53.25723 -23.41973 38527 ft 494 kts 264°
2026-05-07 13:51 53.24743 -23.53336 38527 ft 494 kts 264°
2026-05-07 13:52 53.23753 -23.64689 38527 ft 494 kts 263°
2026-05-07 13:52 53.22750 -23.76038 38506 ft 494 kts 264°
2026-05-07 13:53 53.21743 -23.87327 38512 ft 494 kts 264°
2026-05-07 13:53 53.20719 -23.98679 38514 ft 494 kts 263°
2026-05-07 13:54 53.19685 -24.10017 38518 ft 494 kts 263°
2026-05-07 13:54 53.18636 -24.21386 38491 ft 495 kts 264°
2026-05-07 13:55 53.17585 -24.32664 38495 ft 495 kts 263°
2026-05-07 13:55 53.16517 -24.44006 38498 ft 495 kts 263°
2026-05-07 13:56 53.15435 -24.55374 38499 ft 495 kts 263°
2026-05-07 13:56 53.14352 -24.66637 38501 ft 495 kts 263°
2026-05-07 13:57 53.13250 -24.77962 38473 ft 495 kts 263°
2026-05-07 13:57 53.12138 -24.89291 38473 ft 495 kts 263°
2026-05-07 13:58 53.11015 -25.00612 38473 ft 495 kts 263°
2026-05-07 13:58 53.09887 -25.11868 38491 ft 496 kts 263°
2026-05-07 13:59 53.08740 -25.23201 38469 ft 496 kts 263°
2026-05-07 13:59 53.07584 -25.34516 38469 ft 496 kts 263°
2026-05-07 14:00 53.06414 -25.45846 38452 ft 495 kts 263°
2026-05-07 14:00 53.05829 -25.51477 38315 ft 494 kts 263°
2026-05-07 14:00 53.05241 -25.57100 38176 ft 493 kts 263°
2026-05-07 14:01 53.04059 -25.68340 38163 ft 494 kts 263°
2026-05-07 14:01 53.02872 -25.79518 38153 ft 494 kts 263°
2026-05-07 14:02 53.01669 -25.90745 38159 ft 494 kts 263°
2026-05-07 14:02 53.00454 -26.01974 38164 ft 494 kts 263°
2026-05-07 14:03 52.99228 -26.13199 38166 ft 494 kts 263°
2026-05-07 14:03 52.97994 -26.24405 38155 ft 494 kts 263°
2026-05-07 14:04 52.96754 -26.35537 38168 ft 493 kts 263°
2026-05-07 14:04 52.95501 -26.46709 38168 ft 493 kts 263°
2026-05-07 14:05 52.94237 -26.57884 38166 ft 493 kts 263°
2026-05-07 14:05 52.92962 -26.69049 38173 ft 493 kts 263°
2026-05-07 14:06 52.91675 -26.80213 38182 ft 493 kts 263°
2026-05-07 14:06 52.90389 -26.91286 38184 ft 493 kts 263°
2026-05-07 14:07 52.88926 -27.02386 38181 ft 494 kts 257°
2026-05-07 14:07 52.87355 -27.13469 38184 ft 494 kts 258°
2026-05-07 14:08 52.85925 -27.24594 38152 ft 494 kts 259°
2026-05-07 14:08 52.84575 -27.35722 38184 ft 492 kts 260°
2026-05-07 14:09 52.83241 -27.46826 38190 ft 492 kts 260°
2026-05-07 14:09 52.81892 -27.57925 38190 ft 492 kts 260°
2026-05-07 14:10 52.80759 -27.67132 38195 ft 492 kts 259°
2026-05-07 14:10 52.79158 -27.80012 38192 ft 492 kts 260°
2026-05-07 14:11 52.77773 -27.91054 38212 ft 491 kts 260°
2026-05-07 14:11 52.76604 -28.00319 38203 ft 491 kts 260°
2026-05-07 14:12 52.75206 -28.11327 38207 ft 491 kts 259°
2026-05-07 14:12 52.73790 -28.22375 38208 ft 491 kts 259°
2026-05-07 14:13 52.72373 -28.33332 38207 ft 491 kts 260°
2026-05-07 14:13 52.70940 -28.44344 38208 ft 490 kts 260°
2026-05-07 14:14 52.69498 -28.55343 38210 ft 490 kts 260°
2026-05-07 14:14 52.68044 -28.66346 38218 ft 491 kts 259°
2026-05-07 14:15 52.66588 -28.77272 38199 ft 490 kts 260°
2026-05-07 14:15 52.65113 -28.88255 38220 ft 490 kts 260°
2026-05-07 14:16 52.63632 -28.99210 38217 ft 490 kts 260°
2026-05-07 14:16 52.62139 -29.10174 38223 ft 490 kts 259°
2026-05-07 14:17 52.60649 -29.21028 38219 ft 490 kts 259°
2026-05-07 14:17 52.59137 -29.31951 38226 ft 489 kts 260°
2026-05-07 14:18 52.57619 -29.42842 38224 ft 487 kts 260°
2026-05-07 14:18 52.56098 -29.53688 38228 ft 487 kts 260°
2026-05-07 14:19 52.54567 -29.64536 38232 ft 487 kts 260°
2026-05-07 14:19 52.53034 -29.75313 38217 ft 486 kts 260°
2026-05-07 14:20 52.51484 -29.86117 38236 ft 484 kts 260°
2026-05-07 14:20 52.49941 -29.96812 38235 ft 484 kts 259°
2026-05-07 14:21 52.48515 -30.07586 38240 ft 481 kts 263°
2026-05-07 14:21 52.47443 -30.18401 38242 ft 480 kts 264°
2026-05-07 14:22 52.46391 -30.29207 38243 ft 479 kts 263°
2026-05-07 14:22 52.45277 -30.39976 38244 ft 479 kts 263°
2026-05-07 14:23 52.44125 -30.50720 38246 ft 479 kts 263°
2026-05-07 14:23 52.42953 -30.61481 38246 ft 479 kts 263°
2026-05-07 14:24 52.41774 -30.72223 38249 ft 479 kts 263°
2026-05-07 14:24 52.40586 -30.82961 38255 ft 479 kts 263°
2026-05-07 14:25 52.39397 -30.93621 38248 ft 479 kts 263°
2026-05-07 14:25 52.38191 -31.04346 38250 ft 479 kts 262°
2026-05-07 14:26 52.36976 -31.15062 38251 ft 479 kts 262°
2026-05-07 14:26 52.35748 -31.25794 38225 ft 479 kts 262°
2026-05-07 14:27 52.34512 -31.36509 38265 ft 480 kts 262°
2026-05-07 14:27 52.33270 -31.47175 38270 ft 480 kts 262°
2026-05-07 14:28 52.32012 -31.57895 38259 ft 480 kts 262°
2026-05-07 14:28 52.30745 -31.68614 38257 ft 480 kts 262°
2026-05-07 14:29 52.29469 -31.79318 38252 ft 480 kts 262°
2026-05-07 14:29 52.28180 -31.90033 38268 ft 480 kts 262°
2026-05-07 14:30 52.26892 -32.00666 38270 ft 480 kts 262°
2026-05-07 14:30 52.25585 -32.11362 38276 ft 480 kts 262°
2026-05-07 14:31 52.24269 -32.22053 38261 ft 480 kts 262°
2026-05-07 14:31 52.22944 -32.32739 38265 ft 480 kts 261°
2026-05-07 14:32 52.21613 -32.43379 38266 ft 481 kts 261°
2026-05-07 14:32 52.20263 -32.54081 38269 ft 481 kts 261°
2026-05-07 14:33 52.18904 -32.64771 38264 ft 481 kts 261°
2026-05-07 14:33 52.17536 -32.75458 38229 ft 482 kts 261°
2026-05-07 14:34 52.16167 -32.86081 38269 ft 483 kts 261°
2026-05-07 14:34 52.14772 -32.96812 38278 ft 484 kts 261°
2026-05-07 14:35 52.13368 -33.07522 38279 ft 484 kts 261°
2026-05-07 14:35 52.11954 -33.18232 38285 ft 484 kts 261°
2026-05-07 14:36 52.10531 -33.28934 38272 ft 483 kts 261°
2026-05-07 14:36 52.09103 -33.39592 38276 ft 483 kts 261°
2026-05-07 14:37 52.07671 -33.50209 38279 ft 483 kts 261°
2026-05-07 14:37 52.05494 -33.66195 38281 ft 483 kts 261°
2026-05-07 14:38 52.04030 -33.76850 38256 ft 482 kts 261°
2026-05-07 14:38 52.02566 -33.87403 38285 ft 480 kts 261°
2026-05-07 14:39 52.01091 -33.97995 38289 ft 480 kts 261°
2026-05-07 14:39 51.99608 -34.08574 38287 ft 480 kts 261°
2026-05-07 14:40 51.98116 -34.19140 38287 ft 480 kts 261°
2026-05-07 14:40 51.96613 -34.29692 38285 ft 479 kts 261°
2026-05-07 14:41 51.95114 -34.40141 38292 ft 478 kts 261°
2026-05-07 14:41 51.93601 -34.50641 38296 ft 478 kts 261°
2026-05-07 14:42 51.92078 -34.61128 38289 ft 478 kts 261°
2026-05-07 14:42 51.90543 -34.71618 38289 ft 478 kts 261°
2026-05-07 14:43 51.88998 -34.82103 38293 ft 478 kts 261°
2026-05-07 14:43 51.87445 -34.92573 38294 ft 478 kts 261°
2026-05-07 14:44 51.85879 -35.03046 38293 ft 478 kts 261°
2026-05-07 14:44 51.84316 -35.13453 38297 ft 478 kts 261°
2026-05-07 14:45 51.82736 -35.23899 38284 ft 478 kts 261°
2026-05-07 14:45 51.81148 -35.34328 38294 ft 478 kts 261°
2026-05-07 14:46 51.79552 -35.44743 38294 ft 477 kts 261°
2026-05-07 14:46 51.77948 -35.55150 38296 ft 477 kts 261°
2026-05-07 14:47 51.76343 -35.65493 38305 ft 477 kts 260°
2026-05-07 14:47 51.74721 -35.75881 38296 ft 477 kts 260°
2026-05-07 14:48 51.73086 -35.86273 38302 ft 477 kts 260°
2026-05-07 14:48 51.71444 -35.96646 38305 ft 477 kts 260°
2026-05-07 14:49 51.69807 -36.06942 38303 ft 477 kts 260°
2026-05-07 14:49 51.68151 -36.17294 38304 ft 477 kts 260°
2026-05-07 14:50 51.66484 -36.27654 38296 ft 478 kts 259°
2026-05-07 14:50 51.64802 -36.38024 38314 ft 478 kts 259°
2026-05-07 14:51 51.63112 -36.48376 38313 ft 478 kts 259°
2026-05-07 14:51 51.61420 -36.58679 38307 ft 478 kts 259°
2026-05-07 14:52 51.59711 -36.69024 38295 ft 478 kts 259°
2026-05-07 14:52 51.57992 -36.79368 38292 ft 478 kts 259°
2026-05-07 14:53 51.56266 -36.89697 38296 ft 479 kts 259°
2026-05-07 14:53 51.54526 -37.00040 38312 ft 479 kts 259°
2026-05-07 14:54 51.52781 -37.10353 38309 ft 479 kts 259°
2026-05-07 14:54 51.51025 -37.20675 38290 ft 479 kts 258°
2026-05-07 14:55 51.49258 -37.30992 38307 ft 479 kts 258°
2026-05-07 14:55 51.47482 -37.41298 38306 ft 479 kts 258°
2026-05-07 14:56 51.45711 -37.51522 38306 ft 479 kts 258°
2026-05-07 14:56 51.43917 -37.61817 38305 ft 479 kts 258°
2026-05-07 14:57 51.42112 -37.72120 38306 ft 480 kts 258°
2026-05-07 14:57 51.40299 -37.82403 38306 ft 480 kts 258°
2026-05-07 14:58 51.38473 -37.92704 38306 ft 480 kts 258°
2026-05-07 14:58 51.36639 -38.02986 38306 ft 480 kts 257°
2026-05-07 14:59 51.34808 -38.13196 38299 ft 480 kts 257°
2026-05-07 14:59 51.32957 -38.23458 38306 ft 481 kts 257°
2026-05-07 15:00 51.31409 -38.31995 38305 ft 480 kts 257°
2026-05-07 15:00 51.29541 -38.42248 38306 ft 480 kts 257°
2026-05-07 15:01 51.27664 -38.52497 38302 ft 481 kts 257°
2026-05-07 15:01 51.25773 -38.62752 38298 ft 480 kts 257°
2026-05-07 15:02 51.23879 -38.72966 38300 ft 478 kts 256°
2026-05-07 15:02 51.22000 -38.83046 38304 ft 476 kts 256°
2026-05-07 15:03 51.20105 -38.93175 38304 ft 476 kts 256°
2026-05-07 15:03 51.18202 -39.03289 38274 ft 476 kts 256°
2026-05-07 15:04 51.16289 -39.13395 38302 ft 477 kts 256°
2026-05-07 15:04 51.14372 -39.23465 38303 ft 477 kts 256°
2026-05-07 15:05 51.12437 -39.33576 38301 ft 477 kts 256°
2026-05-07 15:05 51.10491 -39.43686 38298 ft 477 kts 255°
2026-05-07 15:06 51.08534 -39.53812 38293 ft 478 kts 255°
2026-05-07 15:06 51.06565 -39.63943 38295 ft 480 kts 255°
2026-05-07 15:07 51.04596 -39.74008 38298 ft 480 kts 255°
2026-05-07 15:07 51.02605 -39.84131 38295 ft 480 kts 255°
2026-05-07 15:08 51.00604 -39.94261 38292 ft 480 kts 255°
2026-05-07 15:08 50.99047 -40.04498 38298 ft 476 kts 261°
2026-05-07 15:09 50.97913 -40.14836 38292 ft 475 kts 262°
2026-05-07 15:09 50.96837 -40.25163 38293 ft 474 kts 262°
2026-05-07 15:10 50.95759 -40.35473 38292 ft 474 kts 262°
2026-05-07 15:10 50.94670 -40.45708 38279 ft 474 kts 262°
2026-05-07 15:11 50.93701 -40.56039 38290 ft 473 kts 267°
2026-05-07 15:11 50.92844 -40.66401 38287 ft 474 kts 266°
2026-05-07 15:12 50.91821 -40.76745 38284 ft 475 kts 265°
2026-05-07 15:12 50.90690 -40.87064 38284 ft 475 kts 264°
2026-05-07 15:13 50.89527 -40.97380 38284 ft 475 kts 264°
2026-05-07 15:13 50.88360 -41.07686 38279 ft 476 kts 264°
2026-05-07 15:14 50.87195 -41.17943 38276 ft 477 kts 263°
2026-05-07 15:14 50.86012 -41.28275 38276 ft 477 kts 263°
2026-05-07 15:15 50.84821 -41.38593 38278 ft 477 kts 263°
2026-05-07 15:15 50.83622 -41.48908 38276 ft 477 kts 263°
2026-05-07 15:16 50.82411 -41.59234 38273 ft 477 kts 263°
2026-05-07 15:16 50.81192 -41.69551 38272 ft 477 kts 263°
2026-05-07 15:17 50.79964 -41.79856 38275 ft 477 kts 263°
2026-05-07 15:17 50.78727 -41.90157 38274 ft 477 kts 263°
2026-05-07 15:18 50.77488 -42.00392 38274 ft 477 kts 263°
2026-05-07 15:18 50.76233 -42.10681 38279 ft 478 kts 263°
2026-05-07 15:19 50.74962 -42.21029 38263 ft 480 kts 262°
2026-05-07 15:19 50.73681 -42.31373 38277 ft 480 kts 262°
2026-05-07 15:20 50.72388 -42.41721 38258 ft 480 kts 262°
2026-05-07 15:20 50.71089 -42.52054 38273 ft 480 kts 262°
2026-05-07 15:21 50.69779 -42.62392 38269 ft 481 kts 262°
2026-05-07 15:21 50.68467 -42.72668 38275 ft 481 kts 262°
2026-05-07 15:22 50.67133 -42.83000 38272 ft 482 kts 262°
2026-05-07 15:22 50.65788 -42.93352 38283 ft 482 kts 262°
2026-05-07 15:23 50.64444 -43.03685 38275 ft 480 kts 261°
2026-05-07 15:23 50.63091 -43.13997 38272 ft 481 kts 261°
2026-05-07 15:24 50.61723 -43.24325 38274 ft 482 kts 261°
2026-05-07 15:24 50.60342 -43.34672 38274 ft 482 kts 261°
2026-05-07 15:25 50.58964 -43.44922 38274 ft 482 kts 261°
2026-05-07 15:25 50.57567 -43.55241 38274 ft 482 kts 261°
2026-05-07 15:26 50.56159 -43.65574 38270 ft 483 kts 260°
2026-05-07 15:26 50.54739 -43.75915 38270 ft 483 kts 260°
2026-05-07 15:27 50.53311 -43.86244 38271 ft 483 kts 260°
2026-05-07 15:27 50.51884 -43.96493 38273 ft 483 kts 260°
2026-05-07 15:28 50.50440 -44.06790 38271 ft 482 kts 259°
2026-05-07 15:28 50.48992 -44.17053 38268 ft 482 kts 259°
2026-05-07 15:29 50.47532 -44.27325 38271 ft 482 kts 259°
2026-05-07 15:29 50.46064 -44.37583 38271 ft 482 kts 259°
2026-05-07 15:30 50.44585 -44.47850 38273 ft 482 kts 259°
2026-05-07 15:30 50.43100 -44.58090 38259 ft 482 kts 259°
2026-05-07 15:31 50.41603 -44.68342 38274 ft 482 kts 259°
2026-05-07 15:31 50.40099 -44.78582 38273 ft 482 kts 259°
2026-05-07 15:32 50.38595 -44.88746 38272 ft 481 kts 258°
2026-05-07 15:32 50.37077 -44.98939 38274 ft 480 kts 258°
2026-05-07 15:33 50.35550 -45.09130 38269 ft 480 kts 258°
2026-05-07 15:33 50.34014 -45.19315 38276 ft 480 kts 258°
2026-05-07 15:34 50.32471 -45.29478 38273 ft 480 kts 258°
2026-05-07 15:34 50.30918 -45.39642 38273 ft 480 kts 258°
2026-05-07 15:35 50.29349 -45.49797 38279 ft 480 kts 258°
2026-05-07 15:35 50.27791 -45.59879 38277 ft 480 kts 258°
2026-05-07 15:36 50.26216 -45.70024 38278 ft 480 kts 258°
2026-05-07 15:36 50.24629 -45.80163 38278 ft 480 kts 257°
2026-05-07 15:37 50.23038 -45.90258 38280 ft 477 kts 257°
2026-05-07 15:37 50.21442 -46.00317 38275 ft 477 kts 257°
2026-05-07 15:38 50.19838 -46.10368 38263 ft 477 kts 257°
2026-05-07 15:38 50.18236 -46.20350 38276 ft 477 kts 257°
2026-05-07 15:39 50.16612 -46.30401 38277 ft 477 kts 257°
2026-05-07 15:39 50.14979 -46.40450 38274 ft 477 kts 257°
2026-05-07 15:40 50.13341 -46.50471 38274 ft 477 kts 257°
2026-05-07 15:40 50.11691 -46.60506 38276 ft 477 kts 257°
2026-05-07 15:41 50.10045 -46.70457 38273 ft 477 kts 257°
2026-05-07 15:41 50.08383 -46.80449 38269 ft 476 kts 256°
2026-05-07 15:42 50.06716 -46.90408 38272 ft 475 kts 256°
2026-05-07 15:42 50.05041 -47.00355 38271 ft 475 kts 256°
2026-05-07 15:43 50.03361 -47.10283 38268 ft 475 kts 256°
2026-05-07 15:43 50.01668 -47.20226 38268 ft 475 kts 256°
2026-05-07 15:44 49.99967 -47.30158 38265 ft 475 kts 256°
2026-05-07 15:44 49.98268 -47.40022 38263 ft 475 kts 256°
2026-05-07 15:45 49.96551 -47.49936 38263 ft 475 kts 255°
2026-05-07 15:45 49.94828 -47.59831 38262 ft 474 kts 255°
2026-05-07 15:46 49.92242 -47.74569 38265 ft 469 kts 255°
2026-05-07 15:47 49.90520 -47.84324 38258 ft 468 kts 255°
2026-05-07 15:47 49.88792 -47.94058 38258 ft 468 kts 255°
2026-05-07 15:48 49.87054 -48.03794 38257 ft 468 kts 255°
2026-05-07 15:48 49.85310 -48.13513 38260 ft 468 kts 254°
2026-05-07 15:49 49.83855 -48.21580 38257 ft 468 kts 254°
2026-05-07 15:49 49.81809 -48.32858 38257 ft 468 kts 254°
2026-05-07 15:50 49.80338 -48.40930 38258 ft 468 kts 254°
2026-05-07 15:50 49.78562 -48.50622 38257 ft 468 kts 254°
2026-05-07 15:51 49.76784 -48.60283 38260 ft 465 kts 253°
2026-05-07 15:51 49.75004 -48.69896 38256 ft 463 kts 253°
2026-05-07 15:52 49.73231 -48.79423 38252 ft 463 kts 253°
2026-05-07 15:52 49.71442 -48.88984 38249 ft 463 kts 253°
2026-05-07 15:53 49.69642 -48.98543 38251 ft 463 kts 253°
2026-05-07 15:53 49.67840 -49.08092 38249 ft 462 kts 253°
2026-05-07 15:54 49.66035 -49.17605 38252 ft 461 kts 253°
2026-05-07 15:54 49.64233 -49.27046 38246 ft 461 kts 253°
2026-05-07 15:55 49.62410 -49.36549 38249 ft 461 kts 253°
2026-05-07 15:55 49.60581 -49.46035 38251 ft 460 kts 252°
2026-05-07 15:56 49.58757 -49.55456 38249 ft 457 kts 252°
2026-05-07 15:56 49.56932 -49.64825 38244 ft 456 kts 252°
2026-05-07 15:57 49.55096 -49.74180 38244 ft 456 kts 252°
2026-05-07 15:57 49.53270 -49.83476 38241 ft 456 kts 252°
2026-05-07 15:58 49.51426 -49.92823 38241 ft 456 kts 252°
2026-05-07 15:58 49.49568 -50.02163 38235 ft 456 kts 251°
2026-05-07 15:59 49.47429 -50.11352 38235 ft 456 kts 248°
2026-05-07 15:59 49.45153 -50.20438 38235 ft 455 kts 248°
2026-05-07 16:00 49.42901 -50.29538 38236 ft 455 kts 248°
2026-05-07 16:00 49.40694 -50.38587 38236 ft 454 kts 248°
2026-05-07 16:01 49.38490 -50.47641 38231 ft 451 kts 248°
2026-05-07 16:01 49.36286 -50.56664 38230 ft 451 kts 248°
2026-05-07 16:02 49.34074 -50.65678 38227 ft 451 kts 247°
2026-05-07 16:02 49.31853 -50.74680 38223 ft 451 kts 247°
2026-05-07 16:03 49.29628 -50.83667 38218 ft 451 kts 247°
2026-05-07 16:03 49.27398 -50.92635 38219 ft 450 kts 247°
2026-05-07 16:04 49.25181 -51.01514 38219 ft 449 kts 247°
2026-05-07 16:04 49.22943 -51.10445 38219 ft 449 kts 247°
2026-05-07 16:05 49.20696 -51.19372 38209 ft 449 kts 247°
2026-05-07 16:05 49.18442 -51.28293 38208 ft 449 kts 246°
2026-05-07 16:06 49.16184 -51.37196 38209 ft 449 kts 246°
2026-05-07 16:06 49.13918 -51.46095 38208 ft 449 kts 246°
2026-05-07 16:07 49.11646 -51.54984 38197 ft 449 kts 246°
2026-05-07 16:07 49.09369 -51.63855 38198 ft 449 kts 246°
2026-05-07 16:08 49.07095 -51.72683 38194 ft 449 kts 246°
2026-05-07 16:08 49.04807 -51.81531 38195 ft 448 kts 246°
2026-05-07 16:09 49.02510 -51.90378 38192 ft 448 kts 246°
2026-05-07 16:09 49.00209 -51.99204 38191 ft 448 kts 246°
2026-05-07 16:10 48.97889 -52.08014 38190 ft 448 kts 245°
2026-05-07 16:10 48.95528 -52.16792 38189 ft 447 kts 245°
2026-05-07 16:11 48.93184 -52.25481 38196 ft 447 kts 245°
2026-05-07 16:11 48.90826 -52.34221 38178 ft 445 kts 244°
2026-05-07 16:12 48.88467 -52.42936 38176 ft 445 kts 244°
2026-05-07 16:12 48.86104 -52.51632 38176 ft 445 kts 244°
2026-05-07 16:13 48.83749 -52.60273 38173 ft 445 kts 244°
2026-05-07 16:13 48.81374 -52.68950 38162 ft 445 kts 244°
2026-05-07 16:14 48.78992 -52.77625 38158 ft 445 kts 244°
2026-05-07 16:14 48.76608 -52.86275 38154 ft 445 kts 244°
2026-05-07 16:15 48.74214 -52.94925 38159 ft 445 kts 243°
2026-05-07 16:15 48.71826 -53.03528 38146 ft 446 kts 243°
2026-05-07 16:16 48.69417 -53.12171 38143 ft 446 kts 243°
2026-05-07 16:16 48.67000 -53.20811 38140 ft 446 kts 243°
2026-05-07 16:17 48.64580 -53.29434 38138 ft 445 kts 243°
2026-05-07 16:17 48.62158 -53.38030 38141 ft 444 kts 243°
2026-05-07 16:18 48.59733 -53.46608 38131 ft 443 kts 243°
2026-05-07 16:18 48.57303 -53.55172 38132 ft 443 kts 243°
2026-05-07 16:19 48.54866 -53.63728 38132 ft 443 kts 243°
2026-05-07 16:19 48.52425 -53.72268 38135 ft 443 kts 243°
2026-05-07 16:20 48.49973 -53.80816 38129 ft 444 kts 243°
2026-05-07 16:20 48.47514 -53.89359 38129 ft 444 kts 243°
2026-05-07 16:21 48.45062 -53.97850 38131 ft 444 kts 243°
2026-05-07 16:21 48.42588 -54.06388 38133 ft 444 kts 243°
2026-05-07 16:22 48.40107 -54.14915 38159 ft 444 kts 243°
2026-05-07 16:22 48.37617 -54.23442 38126 ft 446 kts 243°
2026-05-07 16:23 48.35111 -54.31995 38129 ft 447 kts 243°
2026-05-07 16:23 48.32600 -54.40538 38127 ft 447 kts 243°
2026-05-07 16:24 48.30099 -54.49018 38127 ft 447 kts 243°
2026-05-07 16:24 48.27575 -54.57548 38116 ft 447 kts 242°
2026-05-07 16:25 48.25037 -54.66090 38112 ft 448 kts 243°
2026-05-07 16:25 48.22493 -54.74624 38113 ft 448 kts 243°
2026-05-07 16:26 48.19937 -54.83170 38104 ft 448 kts 243°
2026-05-07 16:26 48.17388 -54.91663 38073 ft 449 kts 243°
2026-05-07 16:27 48.14822 -55.00181 38048 ft 449 kts 243°
2026-05-07 16:27 48.12246 -55.08702 38070 ft 450 kts 243°
2026-05-07 16:28 48.09655 -55.17248 38051 ft 451 kts 242°
2026-05-07 16:28 48.07053 -55.25799 38026 ft 451 kts 242°
2026-05-07 16:29 48.04448 -55.34333 38020 ft 451 kts 242°
2026-05-07 16:29 48.01836 -55.42854 38020 ft 451 kts 242°
2026-05-07 16:30 47.99232 -55.51324 38009 ft 451 kts 242°
2026-05-07 16:30 47.96606 -55.59835 37998 ft 451 kts 242°
2026-05-07 16:31 47.93973 -55.68339 37988 ft 451 kts 242°
2026-05-07 16:31 47.91338 -55.76823 37965 ft 451 kts 242°
2026-05-07 16:32 47.88689 -55.85323 37979 ft 452 kts 243°
2026-05-07 16:32 47.86030 -55.93827 37972 ft 453 kts 243°
2026-05-07 16:33 47.83369 -56.02306 37963 ft 451 kts 243°
2026-05-07 16:33 47.80707 -56.10761 37958 ft 451 kts 242°
2026-05-07 16:34 47.78058 -56.19149 37954 ft 451 kts 243°
2026-05-07 16:34 47.75385 -56.27581 37960 ft 450 kts 243°
2026-05-07 16:35 47.72709 -56.35991 37966 ft 450 kts 243°
2026-05-07 16:35 47.70029 -56.44389 37979 ft 450 kts 243°
2026-05-07 16:36 47.67343 -56.52779 37977 ft 450 kts 243°
2026-05-07 16:36 47.65105 -56.59743 37988 ft 448 kts 243°
2026-05-07 16:37 47.61997 -56.69426 38000 ft 447 kts 243°
2026-05-07 16:37 47.59308 -56.77728 38005 ft 446 kts 243°
2026-05-07 16:38 47.57056 -56.84663 38032 ft 446 kts 243°
2026-05-07 16:38 47.54388 -56.92858 38032 ft 444 kts 243°
2026-05-07 16:39 47.51712 -57.01060 38021 ft 441 kts 243°
2026-05-07 16:39 47.49044 -57.09212 38015 ft 440 kts 243°
2026-05-07 16:40 47.46375 -57.17342 38006 ft 440 kts 243°
2026-05-07 16:40 47.43691 -57.25488 38010 ft 440 kts 243°
2026-05-07 16:41 47.41008 -57.33607 38008 ft 439 kts 243°
2026-05-07 16:41 47.38327 -57.41695 37996 ft 438 kts 243°
2026-05-07 16:42 47.35647 -57.49752 37985 ft 437 kts 243°
2026-05-07 16:42 47.32978 -57.57755 37984 ft 437 kts 243°
2026-05-07 16:43 47.30288 -57.65794 37972 ft 437 kts 243°
2026-05-07 16:43 47.27593 -57.73823 37970 ft 436 kts 243°
2026-05-07 16:44 47.24904 -57.81808 37957 ft 435 kts 243°
2026-05-07 16:44 47.22211 -57.89780 37958 ft 435 kts 243°
2026-05-07 16:45 47.19515 -57.97736 37951 ft 434 kts 243°
2026-05-07 16:45 47.16832 -58.05632 37941 ft 434 kts 243°
2026-05-07 16:46 47.14136 -58.13544 37934 ft 432 kts 243°
2026-05-07 16:46 47.11442 -58.21424 37931 ft 431 kts 243°
2026-05-07 16:47 47.08747 -58.29280 37934 ft 431 kts 243°
2026-05-07 16:47 47.06046 -58.37135 37919 ft 431 kts 243°
2026-05-07 16:48 47.03339 -58.44979 37915 ft 430 kts 243°
2026-05-07 16:48 47.00649 -58.52757 37912 ft 426 kts 243°
2026-05-07 16:49 46.97958 -58.60514 37907 ft 428 kts 243°
2026-05-07 16:49 46.95253 -58.68286 37903 ft 428 kts 243°
2026-05-07 16:50 46.92560 -58.76001 37891 ft 428 kts 243°
2026-05-07 16:50 46.89843 -58.83762 37891 ft 428 kts 244°
2026-05-07 16:51 46.87126 -58.91505 37890 ft 427 kts 244°
2026-05-07 16:51 46.84406 -58.99231 37889 ft 427 kts 243°
2026-05-07 16:52 46.81700 -59.06895 37875 ft 427 kts 243°
2026-05-07 16:52 46.78970 -59.14602 37872 ft 427 kts 243°
2026-05-07 16:53 46.76236 -59.22296 37871 ft 427 kts 243°
2026-05-07 16:53 46.73497 -59.29986 37869 ft 427 kts 243°
2026-05-07 16:54 46.70754 -59.37665 37881 ft 428 kts 243°
2026-05-07 16:54 46.67996 -59.45359 37856 ft 429 kts 243°
2026-05-07 16:55 46.65226 -59.53066 37849 ft 429 kts 243°
2026-05-07 16:55 46.62451 -59.60765 37851 ft 429 kts 243°
2026-05-07 16:56 46.59692 -59.68398 37848 ft 429 kts 243°
2026-05-07 16:56 46.55513 -59.79915 37829 ft 429 kts 243°
2026-05-07 16:57 46.52720 -59.87567 37809 ft 429 kts 243°
2026-05-07 16:57 46.49928 -59.95225 37826 ft 428 kts 243°
2026-05-07 16:58 46.47135 -60.02865 37815 ft 428 kts 243°
2026-05-07 16:58 46.44335 -60.10493 37815 ft 428 kts 243°
2026-05-07 16:59 46.41544 -60.18072 37815 ft 428 kts 243°
2026-05-07 16:59 46.38734 -60.25685 37816 ft 427 kts 243°
2026-05-07 17:00 46.35937 -60.33236 37813 ft 425 kts 243°
2026-05-07 17:00 46.33136 -60.40777 37807 ft 425 kts 243°
2026-05-07 17:01 46.30331 -60.48304 37805 ft 425 kts 243°
2026-05-07 17:01 46.27523 -60.55826 37802 ft 424 kts 243°
2026-05-07 17:02 46.24772 -60.63174 37878 ft 413 kts 243°
2026-05-07 17:02 46.23408 -60.66807 38216 ft 410 kts 242°
2026-05-07 17:02 46.22053 -60.70404 38574 ft 407 kts 243°
2026-05-07 17:03 46.20703 -60.73991 38770 ft 407 kts 243°
2026-05-07 17:03 46.19348 -60.77591 38893 ft 408 kts 243°
2026-05-07 17:03 46.17988 -60.81199 39043 ft 409 kts 243°
2026-05-07 17:03 46.16621 -60.84818 39187 ft 410 kts 243°
2026-05-07 17:04 46.15256 -60.88429 39327 ft 411 kts 243°
2026-05-07 17:04 46.13884 -60.92051 39471 ft 411 kts 243°
2026-05-07 17:04 46.12514 -60.95664 39717 ft 409 kts 242°
2026-05-07 17:04 46.11147 -60.99270 39784 ft 410 kts 242°
2026-05-07 17:05 46.08400 -61.06488 39785 ft 411 kts 242°
2026-05-07 17:05 46.05662 -61.13663 39781 ft 411 kts 242°
2026-05-07 17:06 46.02901 -61.20881 39784 ft 412 kts 242°
2026-05-07 17:06 46.00134 -61.28096 39768 ft 411 kts 242°
2026-05-07 17:07 45.97377 -61.35264 39767 ft 407 kts 242°
2026-05-07 17:07 45.94636 -61.42375 39770 ft 406 kts 242°
2026-05-07 17:08 45.91891 -61.49477 39769 ft 406 kts 242°
2026-05-07 17:08 45.89162 -61.56520 39769 ft 406 kts 242°
2026-05-07 17:09 45.86409 -61.63606 39752 ft 405 kts 242°
2026-05-07 17:09 45.83662 -61.70659 39755 ft 406 kts 242°
2026-05-07 17:10 45.80884 -61.77773 39764 ft 412 kts 241°
2026-05-07 17:10 45.78064 -61.84977 39756 ft 416 kts 241°
2026-05-07 17:11 45.75227 -61.92203 39751 ft 416 kts 241°
2026-05-07 17:11 45.72387 -61.99417 39750 ft 414 kts 241°
2026-05-07 17:12 45.69560 -62.06580 39748 ft 413 kts 241°
2026-05-07 17:12 45.66753 -62.13677 39749 ft 412 kts 241°
2026-05-07 17:13 45.63920 -62.20819 39743 ft 412 kts 241°
2026-05-07 17:13 45.61084 -62.27953 39744 ft 413 kts 241°
2026-05-07 17:14 45.58246 -62.35070 39741 ft 412 kts 241°
2026-05-07 17:14 45.55409 -62.42169 39738 ft 411 kts 241°
2026-05-07 17:15 45.52567 -62.49258 39741 ft 411 kts 241°
2026-05-07 17:15 45.49717 -62.56353 39729 ft 412 kts 241°
2026-05-07 17:16 45.46862 -62.63440 39729 ft 413 kts 241°
2026-05-07 17:16 45.44003 -62.70517 39729 ft 414 kts 241°
2026-05-07 17:17 45.41125 -62.77627 39729 ft 414 kts 241°
2026-05-07 17:17 45.38244 -62.84725 39718 ft 414 kts 241°
2026-05-07 17:18 45.35361 -62.91811 39713 ft 413 kts 241°
2026-05-07 17:18 45.32473 -62.98888 39715 ft 413 kts 241°
2026-05-07 17:19 45.29590 -63.05935 39731 ft 413 kts 241°
2026-05-07 17:19 45.26719 -63.12939 39707 ft 412 kts 241°
2026-05-07 17:20 45.23830 -63.19969 39725 ft 412 kts 241°
2026-05-07 17:20 45.20935 -63.26995 39733 ft 413 kts 240°
2026-05-07 17:21 45.18279 -63.33423 39711 ft 411 kts 240°
2026-05-07 17:21 45.15387 -63.40406 39717 ft 410 kts 240°
2026-05-07 17:22 45.12492 -63.47376 39725 ft 410 kts 239°
2026-05-07 17:22 45.09610 -63.54290 39716 ft 410 kts 240°
2026-05-07 17:23 45.06714 -63.61244 39714 ft 409 kts 240°
2026-05-07 17:23 45.03819 -63.68173 39715 ft 409 kts 240°
2026-05-07 17:24 45.00920 -63.75090 39707 ft 409 kts 240°
2026-05-07 17:24 44.98041 -63.81942 39707 ft 408 kts 240°
2026-05-07 17:25 44.95128 -63.88856 39708 ft 408 kts 240°
2026-05-07 17:25 44.92224 -63.95732 39716 ft 407 kts 240°
2026-05-07 17:26 44.89814 -64.01424 39715 ft 407 kts 240°
2026-05-07 17:26 44.86897 -64.08304 39700 ft 409 kts 240°
2026-05-07 17:27 44.83976 -64.15175 39706 ft 409 kts 240°
2026-05-07 17:27 44.81064 -64.22008 39705 ft 409 kts 240°
2026-05-07 17:28 44.78125 -64.28883 39696 ft 408 kts 240°
2026-05-07 17:28 44.75197 -64.35720 39703 ft 407 kts 240°
2026-05-07 17:29 44.72286 -64.42503 39702 ft 407 kts 240°
2026-05-07 17:29 44.69351 -64.49324 39701 ft 407 kts 240°
2026-05-07 17:30 44.66413 -64.56134 39694 ft 407 kts 240°
2026-05-07 17:30 44.63484 -64.62907 39706 ft 405 kts 240°
2026-05-07 17:31 44.60555 -64.69665 39718 ft 405 kts 240°
2026-05-07 17:31 44.57613 -64.76439 39714 ft 407 kts 240°
2026-05-07 17:32 44.54656 -64.83229 39709 ft 408 kts 240°
2026-05-07 17:32 44.51716 -64.89962 39708 ft 406 kts 240°
2026-05-07 17:33 44.48765 -64.96705 39709 ft 404 kts 240°
2026-05-07 17:33 44.45824 -65.03411 39716 ft 404 kts 240°
2026-05-07 17:34 44.42876 -65.10118 39714 ft 404 kts 240°
2026-05-07 17:34 44.39946 -65.16767 39688 ft 404 kts 240°
2026-05-07 17:35 44.37002 -65.23431 39715 ft 402 kts 240°
2026-05-07 17:35 44.34058 -65.30080 39719 ft 402 kts 240°
2026-05-07 17:36 44.31127 -65.36688 39718 ft 402 kts 240°
2026-05-07 17:36 44.28175 -65.43332 39725 ft 404 kts 240°
2026-05-07 17:37 44.25192 -65.50024 39718 ft 407 kts 240°
2026-05-07 17:37 44.22194 -65.56730 39718 ft 406 kts 240°
2026-05-07 17:38 44.19220 -65.63370 39720 ft 406 kts 240°
2026-05-07 17:38 44.16221 -65.70051 39718 ft 406 kts 240°
2026-05-07 17:39 44.13222 -65.76719 39727 ft 406 kts 240°
2026-05-07 17:39 44.10217 -65.83383 39734 ft 406 kts 240°
2026-05-07 17:40 44.07225 -65.90002 39735 ft 406 kts 240°
2026-05-07 17:40 44.04213 -65.96650 39736 ft 406 kts 239°
2026-05-07 17:41 44.01194 -66.03298 39737 ft 406 kts 239°
2026-05-07 17:41 43.98175 -66.09932 39758 ft 406 kts 239°
2026-05-07 17:42 43.95171 -66.16518 39737 ft 406 kts 239°
2026-05-07 17:42 43.92152 -66.23121 39742 ft 405 kts 239°
2026-05-07 17:43 43.89128 -66.29722 39734 ft 405 kts 239°
2026-05-07 17:43 43.86093 -66.36329 39737 ft 406 kts 239°
2026-05-07 17:44 43.83070 -66.42895 39736 ft 403 kts 240°
2026-05-07 17:44 43.80054 -66.49433 39745 ft 402 kts 239°
2026-05-07 17:45 43.77039 -66.55955 39745 ft 402 kts 239°
2026-05-07 17:45 43.74020 -66.62470 39751 ft 402 kts 239°
2026-05-07 17:46 43.71018 -66.68934 39748 ft 401 kts 240°
2026-05-07 17:46 43.68009 -66.75397 39806 ft 399 kts 239°
2026-05-07 17:47 43.64997 -66.81856 39763 ft 401 kts 239°
2026-05-07 17:47 43.61960 -66.88353 39761 ft 402 kts 239°
2026-05-07 17:48 43.58925 -66.94829 39761 ft 402 kts 239°
2026-05-07 17:48 43.55897 -67.01283 39764 ft 399 kts 240°
2026-05-07 17:49 43.53082 -67.07840 39761 ft 397 kts 242°
2026-05-07 17:49 43.50394 -67.14426 39765 ft 397 kts 242°
2026-05-07 17:50 43.47660 -67.21034 39770 ft 397 kts 242°
2026-05-07 17:50 43.44892 -67.27619 39765 ft 397 kts 242°
2026-05-07 17:51 43.42116 -67.34177 39770 ft 396 kts 242°
2026-05-07 17:51 43.39359 -67.40676 39774 ft 395 kts 242°
2026-05-07 17:52 43.36582 -67.47211 39772 ft 395 kts 242°
2026-05-07 17:52 43.33798 -67.53749 39771 ft 395 kts 242°
2026-05-07 17:53 43.31030 -67.60236 39766 ft 394 kts 242°
2026-05-07 17:53 43.28262 -67.66707 39781 ft 392 kts 242°
2026-05-07 17:54 43.25495 -67.73163 39777 ft 392 kts 242°
2026-05-07 17:54 43.22746 -67.79562 39780 ft 392 kts 242°
2026-05-07 17:55 43.19970 -67.86011 39781 ft 392 kts 242°
2026-05-07 17:55 43.17201 -67.92428 39782 ft 389 kts 242°
2026-05-07 17:56 43.14439 -67.98813 39798 ft 389 kts 242°
2026-05-07 17:56 43.11686 -68.05169 39788 ft 391 kts 242°
2026-05-07 17:57 43.09359 -68.10528 39787 ft 391 kts 242°
2026-05-07 17:57 43.06127 -68.17954 39756 ft 391 kts 242°
2026-05-07 17:58 43.03347 -68.24323 39795 ft 388 kts 242°
2026-05-07 17:58 43.00583 -68.30646 39793 ft 387 kts 242°
2026-05-07 17:59 42.97815 -68.36964 39798 ft 387 kts 242°
2026-05-07 17:59 42.95046 -68.43272 39797 ft 387 kts 242°
2026-05-07 18:00 42.92287 -68.49529 39778 ft 386 kts 242°
2026-05-07 18:00 42.89525 -68.55794 39810 ft 385 kts 242°
2026-05-07 18:01 42.86763 -68.62053 39800 ft 385 kts 242°
2026-05-07 18:01 42.83993 -68.68313 39799 ft 386 kts 242°
2026-05-07 18:02 42.79826 -68.77697 39800 ft 386 kts 242°
2026-05-07 18:03 42.77043 -68.83950 39800 ft 386 kts 242°
2026-05-07 18:03 42.74271 -68.90163 39804 ft 387 kts 242°
2026-05-07 18:04 42.71469 -68.96432 39806 ft 387 kts 242°
2026-05-07 18:04 42.68663 -69.02695 39805 ft 388 kts 242°
2026-05-07 18:05 42.65853 -69.08952 39783 ft 387 kts 242°
2026-05-07 18:05 42.63068 -69.15141 39806 ft 385 kts 242°
2026-05-07 18:06 42.60272 -69.21342 39814 ft 385 kts 242°
2026-05-07 18:06 42.57463 -69.27563 39807 ft 387 kts 241°
2026-05-07 18:07 42.54644 -69.33789 39810 ft 387 kts 241°
2026-05-07 18:07 42.51823 -69.40004 39800 ft 386 kts 242°
2026-05-07 18:08 42.49018 -69.46171 39814 ft 383 kts 242°
2026-05-07 18:08 42.46219 -69.52314 39812 ft 383 kts 242°
2026-05-07 18:09 42.43411 -69.58471 39811 ft 385 kts 241°
2026-05-07 18:09 42.40598 -69.64620 39811 ft 386 kts 241°
2026-05-07 18:10 42.37767 -69.70793 39800 ft 385 kts 242°
2026-05-07 18:10 42.34955 -69.76910 39813 ft 381 kts 242°
2026-05-07 18:11 42.32158 -69.82988 39815 ft 381 kts 242°
2026-05-07 18:11 42.29354 -69.89070 39830 ft 382 kts 241°
2026-05-07 18:12 42.26529 -69.95184 39818 ft 385 kts 241°
2026-05-07 18:12 42.23692 -70.01308 39794 ft 383 kts 241°
2026-05-07 18:13 42.20878 -70.07365 39707 ft 380 kts 241°
2026-05-07 18:13 42.18077 -70.13391 39711 ft 382 kts 241°
2026-05-07 18:14 42.15252 -70.19456 39750 ft 382 kts 241°
2026-05-07 18:14 42.12406 -70.25552 39778 ft 386 kts 241°
2026-05-07 18:15 42.09542 -70.31674 39795 ft 385 kts 241°
2026-05-07 18:15 42.07179 -70.36713 39813 ft 382 kts 241°
2026-05-07 18:16 42.04347 -70.42744 39812 ft 381 kts 241°
2026-05-07 18:16 42.00755 -70.49497 39806 ft 382 kts 237°
2026-05-07 18:17 41.98091 -70.54305 39849 ft 382 kts 238°
2026-05-07 18:17 41.94948 -70.60036 39775 ft 383 kts 238°
2026-05-07 18:18 41.91798 -70.65792 39802 ft 381 kts 238°
2026-05-07 18:18 41.88664 -70.71518 39805 ft 380 kts 238°
2026-05-07 18:19 41.85531 -70.77236 39804 ft 380 kts 238°
2026-05-07 18:19 41.82392 -70.82955 39804 ft 380 kts 238°
2026-05-07 18:20 41.79270 -70.88629 39846 ft 379 kts 238°
2026-05-07 18:20 41.76141 -70.94308 39813 ft 379 kts 238°
2026-05-07 18:21 41.73001 -70.99996 39814 ft 379 kts 238°
2026-05-07 18:21 41.71439 -71.02821 39692 ft 372 kts 238°
2026-05-07 18:21 41.69905 -71.05588 39033 ft 370 kts 238°
2026-05-07 18:21 41.68373 -71.08356 38268 ft 368 kts 238°
2026-05-07 18:22 41.66854 -71.11096 37412 ft 366 kts 238°
2026-05-07 18:22 41.65851 -71.12903 36813 ft 365 kts 238°
2026-05-07 18:22 41.63847 -71.16512 35588 ft 363 kts 238°
2026-05-07 18:22 41.62343 -71.19219 34683 ft 363 kts 238°
2026-05-07 18:23 41.60835 -71.21932 33760 ft 364 kts 238°
2026-05-07 18:23 41.59345 -71.24675 32575 ft 363 kts 240°
2026-05-07 18:23 41.58390 -71.27809 31287 ft 368 kts 252°
2026-05-07 18:23 41.57765 -71.31156 29997 ft 374 kts 253°
2026-05-07 18:24 41.57024 -71.34470 28789 ft 363 kts 249°
2026-05-07 18:24 41.56110 -71.37434 28131 ft 338 kts 245°
2026-05-07 18:24 41.55067 -71.40124 27485 ft 316 kts 242°
2026-05-07 18:24 41.53957 -71.42592 26538 ft 305 kts 240°
2026-05-07 18:25 41.52802 -71.44932 25438 ft 299 kts 239°
2026-05-07 18:25 41.51619 -71.47213 24600 ft 296 kts 238°
2026-05-07 18:25 41.50432 -71.49470 24022 ft 298 kts 238°
2026-05-07 18:25 41.49258 -71.51759 23826 ft 298 kts 240°
2026-05-07 18:26 41.48194 -71.54119 23531 ft 292 kts 241°
2026-05-07 18:26 41.47201 -71.56379 22577 ft 283 kts 241°
2026-05-07 18:26 41.46203 -71.58675 21050 ft 289 kts 241°
2026-05-07 18:26 41.45194 -71.61006 19961 ft 288 kts 241°
2026-05-07 18:27 41.44222 -71.63253 19471 ft 270 kts 241°
2026-05-07 18:27 41.43313 -71.65353 18977 ft 255 kts 241°
2026-05-07 18:27 41.42436 -71.67384 18177 ft 253 kts 241°
2026-05-07 18:27 41.41552 -71.69432 17165 ft 255 kts 241°
2026-05-07 18:28 41.40671 -71.71471 16350 ft 251 kts 241°
2026-05-07 18:28 41.39819 -71.73440 15608 ft 246 kts 242°
2026-05-07 18:28 41.38971 -71.75401 14851 ft 242 kts 242°
2026-05-07 18:28 41.38133 -71.77335 14076 ft 240 kts 242°
2026-05-07 18:29 41.37303 -71.79250 13276 ft 238 kts 242°
2026-05-07 18:29 41.36480 -71.81145 12479 ft 236 kts 242°
2026-05-07 18:29 41.35654 -71.83050 11997 ft 238 kts 243°
2026-05-07 18:29 41.34823 -71.84967 11836 ft 239 kts 243°
2026-05-07 18:30 41.33991 -71.86885 11831 ft 238 kts 243°
2026-05-07 18:30 41.33163 -71.88792 11834 ft 237 kts 243°
2026-05-07 18:30 41.32346 -71.90670 11832 ft 237 kts 243°
2026-05-07 18:30 41.31518 -71.92574 11848 ft 239 kts 243°
2026-05-07 18:31 41.30685 -71.94489 11843 ft 239 kts 243°
2026-05-07 18:31 41.29850 -71.96404 11842 ft 238 kts 243°
2026-05-07 18:31 41.29019 -71.98309 11843 ft 238 kts 243°
2026-05-07 18:31 41.28189 -72.00212 11841 ft 238 kts 243°
2026-05-07 18:32 41.27359 -72.02114 11840 ft 238 kts 243°
2026-05-07 18:32 41.26529 -72.04015 11843 ft 238 kts 243°
2026-05-07 18:32 41.25695 -72.05921 11841 ft 238 kts 243°
2026-05-07 18:32 41.24872 -72.07804 11842 ft 238 kts 243°
2026-05-07 18:33 41.24040 -72.09705 11840 ft 238 kts 243°
2026-05-07 18:33 41.23205 -72.11611 11842 ft 238 kts 243°
2026-05-07 18:33 41.22374 -72.13509 11841 ft 238 kts 243°
2026-05-07 18:33 41.21541 -72.15409 11841 ft 238 kts 243°
2026-05-07 18:34 41.20706 -72.17310 11831 ft 238 kts 242°
2026-05-07 18:34 41.19872 -72.19211 11945 ft 238 kts 242°
2026-05-07 18:34 41.19039 -72.21108 11964 ft 238 kts 242°
2026-05-07 18:34 41.18205 -72.23006 11964 ft 238 kts 242°
2026-05-07 18:35 41.17372 -72.24899 11964 ft 238 kts 242°
2026-05-07 18:35 41.16538 -72.26793 11974 ft 238 kts 242°
2026-05-07 18:35 41.15703 -72.28688 11968 ft 238 kts 242°
2026-05-07 18:35 41.14877 -72.30562 11969 ft 238 kts 242°
2026-05-07 18:36 41.14044 -72.32452 11967 ft 238 kts 242°
2026-05-07 18:36 41.13209 -72.34346 11968 ft 238 kts 242°
2026-05-07 18:36 41.12374 -72.36237 11969 ft 238 kts 242°
2026-05-07 18:36 41.11539 -72.38126 11969 ft 237 kts 242°
2026-05-07 18:37 41.10701 -72.40021 11969 ft 238 kts 242°
2026-05-07 18:37 41.09862 -72.41919 11969 ft 238 kts 242°
2026-05-07 18:37 41.09035 -72.43786 11969 ft 238 kts 242°
2026-05-07 18:37 41.08196 -72.45683 11969 ft 238 kts 242°
2026-05-07 18:38 41.07356 -72.47578 11970 ft 238 kts 242°
2026-05-07 18:38 41.06518 -72.49466 11970 ft 238 kts 242°
2026-05-07 18:38 41.05680 -72.51354 11955 ft 238 kts 242°
2026-05-07 18:38 41.04839 -72.53249 11978 ft 238 kts 242°
2026-05-07 18:39 41.03998 -72.55143 11983 ft 238 kts 242°
2026-05-07 18:39 41.03157 -72.57034 11982 ft 239 kts 242°
2026-05-07 18:39 41.02323 -72.58911 11984 ft 238 kts 242°
2026-05-07 18:39 41.01481 -72.60801 11997 ft 239 kts 242°
2026-05-07 18:40 41.00638 -72.62693 11988 ft 239 kts 242°
2026-05-07 18:40 40.99793 -72.64588 11986 ft 239 kts 242°
2026-05-07 18:40 40.98947 -72.66482 11986 ft 239 kts 242°
2026-05-07 18:40 40.98101 -72.68378 11986 ft 239 kts 242°
2026-05-07 18:41 40.97254 -72.70279 11984 ft 239 kts 242°
2026-05-07 18:41 40.96419 -72.72151 11987 ft 239 kts 242°
2026-05-07 18:41 40.95571 -72.74049 11988 ft 239 kts 242°
2026-05-07 18:41 40.94724 -72.75942 11986 ft 239 kts 242°
2026-05-07 18:42 40.93874 -72.77833 11986 ft 239 kts 242°
2026-05-07 18:42 40.92918 -72.79636 11986 ft 241 kts 233°
2026-05-07 18:42 40.91705 -72.81195 11987 ft 245 kts 226°
2026-05-07 18:42 40.90367 -72.82605 11988 ft 247 kts 223°
2026-05-07 18:43 40.88969 -72.83935 11979 ft 248 kts 222°
2026-05-07 18:43 40.87544 -72.85240 11988 ft 249 kts 221°
2026-05-07 18:43 40.86117 -72.86542 11987 ft 249 kts 221°
2026-05-07 18:43 40.84717 -72.87833 11987 ft 249 kts 222°
2026-05-07 18:44 40.83302 -72.89158 11803 ft 248 kts 222°
2026-05-07 18:44 40.81898 -72.90487 11553 ft 248 kts 223°
2026-05-07 18:44 40.80501 -72.91822 11311 ft 248 kts 223°
2026-05-07 18:44 40.79097 -72.93167 11060 ft 249 kts 223°
2026-05-07 18:45 40.77698 -72.94510 10814 ft 249 kts 223°
2026-05-07 18:45 40.76311 -72.95839 10583 ft 249 kts 223°
2026-05-07 18:45 40.74905 -72.97184 10340 ft 250 kts 223°
2026-05-07 18:45 40.73496 -72.98530 10091 ft 250 kts 223°
2026-05-07 18:46 40.72085 -72.99877 9993 ft 251 kts 223°
2026-05-07 18:46 40.70674 -73.01226 9975 ft 250 kts 223°
2026-05-07 18:46 40.69353 -73.02671 9983 ft 244 kts 231°
2026-05-07 18:46 40.68346 -73.04432 9910 ft 237 kts 244°
2026-05-07 18:47 40.67644 -73.06385 9749 ft 237 kts 249°
2026-05-07 18:47 40.67019 -73.08399 9484 ft 238 kts 250°
2026-05-07 18:47 40.66409 -73.10426 9226 ft 239 kts 251°
2026-05-07 18:47 40.65804 -73.12447 8962 ft 240 kts 251°
2026-05-07 18:48 40.65190 -73.14499 8703 ft 241 kts 251°
2026-05-07 18:48 40.64572 -73.16566 8522 ft 243 kts 251°
2026-05-07 18:48 40.63950 -73.18647 8299 ft 244 kts 251°
2026-05-07 18:48 40.63328 -73.20729 7987 ft 245 kts 252°
2026-05-07 18:49 40.62701 -73.22822 7658 ft 246 kts 252°
2026-05-07 18:49 40.62067 -73.24924 7350 ft 248 kts 252°
2026-05-07 18:49 40.61431 -73.27043 7032 ft 250 kts 252°
2026-05-07 18:49 40.60790 -73.29178 6697 ft 252 kts 253°
2026-05-07 18:50 40.60142 -73.31335 6368 ft 255 kts 253°
2026-05-07 18:50 40.59487 -73.33516 6012 ft 258 kts 253°
2026-05-07 18:50 40.58828 -73.35721 5667 ft 259 kts 252°
2026-05-07 18:50 40.58164 -73.37931 5336 ft 261 kts 251°
2026-05-07 18:51 40.57495 -73.40153 4988 ft 262 kts 251°
2026-05-07 18:51 40.56821 -73.42385 4651 ft 263 kts 251°
2026-05-07 18:51 40.56140 -73.44623 4293 ft 264 kts 251°
2026-05-07 18:51 40.55462 -73.46865 3945 ft 263 kts 251°
2026-05-07 18:52 40.54795 -73.49070 3617 ft 262 kts 250°
2026-05-07 18:52 40.54119 -73.51298 3326 ft 256 kts 250°
2026-05-07 18:52 40.53532 -73.53380 3246 ft 227 kts 256°
2026-05-07 18:52 40.53361 -73.55313 3170 ft 202 kts 277°
2026-05-07 18:53 40.53682 -73.57054 3077 ft 194 kts 296°
2026-05-07 18:53 40.54311 -73.58600 2990 ft 194 kts 302°
2026-05-07 18:53 40.55001 -73.60094 2877 ft 182 kts 302°
2026-05-07 18:53 40.55624 -73.61439 2857 ft 163 kts 302°
2026-05-07 18:54 40.56203 -73.62695 2638 ft 158 kts 303°
2026-05-07 18:54 40.56763 -73.63918 2464 ft 158 kts 302°
2026-05-07 18:54 40.57336 -73.65172 2272 ft 158 kts 302°
2026-05-07 18:54 40.57903 -73.66386 2109 ft 158 kts 302°
2026-05-07 18:55 40.58472 -73.67645 1913 ft 161 kts 300°
2026-05-07 18:55 40.59046 -73.68912 1674 ft 160 kts 301°
2026-05-07 18:55 40.59614 -73.70156 1463 ft 159 kts 301°
2026-05-07 18:55 40.60184 -73.71414 1248 ft 160 kts 300°
2026-05-07 18:56 40.60749 -73.72658 1001 ft 160 kts 300°
2026-05-07 18:56 40.61313 -73.73924 767 ft 160 kts 300°
2026-05-07 18:56 40.61875 -73.75186 535 ft 159 kts 302°
2026-05-07 18:56 40.62457 -73.76461 309 ft 163 kts 303°
2026-05-07 18:57 40.63015 -73.77690 146 ft 151 kts 306°
2026-05-07 18:57 40.63535 -73.78833 33 ft 138 kts 304°
2026-05-07 18:57 40.63977 -73.79760 28 ft 102 kts 300°
2026-05-07 18:57 40.64132 -73.80103 31 ft 12 kts 300°
2026-05-07 18:58 40.64150 -73.80145 31 ft 11 kts 300°
2026-05-07 18:58 40.64226 -73.80318 29 ft 29 kts 300°
2026-05-07 18:58 40.64340 -73.80454 28 ft 0 kts 352°
2026-05-07 18:58 40.64362 -73.80453 28 ft 6 kts
2026-05-07 18:59 40.64393 -73.80435 27 ft 2 kts 29°
2026-05-07 18:59 40.64393 -73.80434 27 ft 0 kts 29°
2026-05-07 18:59 40.64410 -73.80423 27 ft 7 kts 26°
2026-05-07 19:00 40.64468 -73.80383 29 ft 9 kts 30°
2026-05-07 19:00 40.64487 -73.80320 30 ft 8 kts 103°
2026-05-07 19:00 40.64447 -73.80218 27 ft 19 kts 119°
2026-05-07 19:00 40.64367 -73.80041 29 ft 25 kts 120°
2026-05-07 19:01 40.64254 -73.79846 31 ft 29 kts 134°
2026-05-07 19:01 40.64130 -73.79619 31 ft 32 kts 122°
2026-05-07 19:01 40.64007 -73.79367 28 ft 34 kts 121°
2026-05-07 19:01 40.63882 -73.79083 29 ft 36 kts 120°
2026-05-07 19:02 40.63752 -73.78797 33 ft 36 kts 121°
2026-05-07 19:02 40.63622 -73.78512 35 ft 37 kts 120°
2026-05-07 19:02 40.63483 -73.78204 31 ft 40 kts 121°
2026-05-07 19:02 40.63407 -73.78002 29 ft 23 kts 98°
2026-05-07 19:03 40.63445 -73.77880 30 ft 23 kts 44°
2026-05-07 19:03 40.63638 -73.77723 29 ft 27 kts 31°
2026-05-07 19:03 40.63800 -73.77596 27 ft 28 kts 31°
2026-05-07 19:03 40.63969 -73.77465 28 ft 28 kts 31°
2026-05-07 19:04 40.64041 -73.77428 28 ft 14 kts 359°
2026-05-07 19:04 40.64120 -73.77493 29 ft 14 kts 316°
2026-05-07 19:04 40.64204 -73.77570 29 ft 16 kts 330°
2026-05-07 19:04 40.64309 -73.77648 29 ft 18 kts 332°
2026-05-07 19:05 40.64411 -73.77750 29 ft 19 kts 309°
2026-05-07 19:05 40.64426 -73.77789 29 ft 3 kts 285°
2026-05-07 19:05 40.64418 -73.77849 29 ft 9 kts 245°
2026-05-07 19:05 40.64398 -73.77899 29 ft 5 kts 242°
2026-05-07 19:06 40.64391 -73.77917 29 ft 2 kts 241°
2026-05-07 19:06 40.64387 -73.77924 29 ft 0 kts 239°